Location: Sternwarte_Laufen
(47.9344°N, 12.9346°E)
Time: 07:27:51
(UTC+01:00)

ISS - Pass Details

Date: 13 November 2018
Orbit: 401 x 409 km, 51.6° (Epoch: 21 November)

Event Time Altitude Azimuth Distance (km) Brightness Sun altitude
Exits shadow 05:01:39 36° 160° (SSE) 666 -2.6 -21.6°
Drops below altitude 10° 05:03:53 10° 135° (SE) 1,459 -0.4 -21.3°
Sets 05:05:59 0° 130° (SE) 2,318 0.9 -20.9°
